Regional Weather Roundup
Issued by NWS

Home | Current Version | Previous Version | Text Only | Print | Product List | Glossary Off
Versions: 1 2 3 4 5 6 7 8 9 10 11 12 13 14 15 16 17 18 19 20 21 22 23 24 25 26 27 28 29 30 31 32 33 34 35 36 37 38 39 40 41 42 43 44 45 46 47 48 49 50

488
ASUS43 KMPX 240501
RWRMN
WEATHER ROUNDUP FOR MINNESOTA
NATIONAL WEATHER SERVICE TWIN CITIES/CHANHASSEN MN
1200 AM CDT SUN JUL 24 2016


NOTE: "FAIR" INDICATES FEW OR NO CLOUDS BELOW 12,000 FEET WITH NO
SIGNIFICANT WEATHER AND/OR OBSTRUCTIONS TO VISIBILITY. N/A MEANS
CURRENT SKY AND/OR WEATHER CONDITIONS ARE NOT AVAILABLE.

MNZ060>063-068>070-240600-
   Twin Cities Metro

CITY           SKY/WX    TMP DP  RH WIND       PRES   REMARKS
TWIN CITIES    CLOUDY    75  70  84 SE8       29.78F
ST PAUL          N/A     74  70  87 SE7       29.78F
CRYSTAL        CLOUDY    75  69  81 SE9       29.76F
BLAINE         CLOUDY    75  73  94 SE8       29.77F
LAKEVILLE      CLOUDY    72  72 100 SE5       29.79F
EDEN PRAIRIE   MOCLDY    76  71  85 SE9       29.77F
LAKEVILLE      CLOUDY    72  72 100 SE5       29.79F
SOUTH ST PAUL  CLOUDY    74  71  92 CALM      29.79S
LAKE ELMO      CLOUDY    72  72 100 SE5       29.80F
$$
MNZ001>005-007-008-013>017-022>024-027-028-240600-
   Northwest Minnesota

CITY           SKY/WX    TMP DP  RH WIND       PRES   REMARKS
BEMIDJI        CLOUDY    72  68  88 SW5       29.76S
HALLOCK        CLEAR     66  64  94 SW5       29.70S
ROSEAU         CLEAR     70  64  83 SW8       29.70S
WARROAD        PTCLDY    70  66  88 SW7       29.69S
THIEF RVR FALL CLOUDY    69  68  96 SW8       29.75S
CROOKSTON      CLEAR     70  66  88 SW5       29.75R
FOSSTON        PTCLDY    70  66  88 SW6       29.77S
DETROIT LAKES  CLOUDY    70  64  83 CALM      29.81S
MOORHEAD       MOCLDY    73  72  94 W5        29.79R
PARK RAPIDS    CLOUDY    73  70  90 SW5       29.76F
MAHNOMEN       MOCLDY    68  66  95 S7        29.78R
$$
MNZ006-009>011-018-025>026-240600-
   North Central Minnesota

CITY           SKY/WX    TMP DP  RH WIND       PRES   REMARKS
BAUDETTE       CLOUDY    73  67  81 S12       29.70S
FLAG ISLAND    CLOUDY    70  66  88 W6        29.66F
INTL FALLS     CLOUDY    71  64  78 S8        29.72F
WASKISH        CLOUDY    72  66  83 S6        29.72F
BIG FORK       LGT RAIN  70  64  83 SE7       29.77S
LONGVILLE      CLOUDY    72  68  88 S7        29.77S
GRAND RAPIDS   CLOUDY    68  65  90 SE7       29.79F
CRANE LAKE     CLOUDY    66  63  88 SE1       29.78F
ORR            CLOUDY    68  63  83 SE5       29.76F
COOK           PTCLDY    66  63  88 SE3       29.79F
WALKER         MOCLDY    70  68  94 E3        29.76F THUNDER
$$
MNZ012-019>021-037-240600-
   Northeast Minnesota

CITY           SKY/WX    TMP DP  RH WIND       PRES   REMARKS
DULUTH         CLOUDY    62  60  93 SE9       29.82S
ELY            MOCLDY    64  57  77 SE7       29.81F
HIBBING        CLOUDY    66  64  93 SE8       29.80F
EVELETH        CLOUDY    65  62  89 CALM      29.82F
DULUTH HARBOR  CLOUDY    63  61  94 NE8       29.82S
TWO HARBORS    CLOUDY    66  61  82 CALM      29.80S
SILVER BAY     MOCLDY    64  61  88 CALM      29.81S
GRAND MARAIS     N/A     65  58  78 E7        29.82S
G MARAIS ARPRT CLOUDY    63  55  77 CALM      29.86F
$$
MNZ029>031-032-039>041-046>048-054>057-064-240600-
   West Central Minnesota

CITY           SKY/WX    TMP DP  RH WIND       PRES   REMARKS
FERGUS FALLS   CLOUDY    70  70 100 SW3       29.81R
WHEATON        MOCLDY    70  68  94 CALM      29.81R
MORRIS         CLOUDY    70  66  88 N3        29.77F
ALEXANDRIA     TSTM      75  73  93 NW10      29.80R
ELBOW LAKE     FAIR      70  69  98 NW9       29.79R
WADENA         LGT RAIN  70  68  94 W5        29.78R
GLENWOOD       TSTM      73  73 100 W15G22    29.83R
APPLETON       MOCLDY    79  72  78 N14       29.76R
BENSON         TSTM      73  66  78 NE15G29   29.77R
ORTONVILLE     PTCLDY    77  72  83 N9        29.79R
MADISON        PTCLDY    79  73  83 NW21G30   29.78R
WILLMAR        FAIR      77  75  94 SE7       29.76R
$$
MNZ033>034-036-042>043-049>051-058-059-240600-
   Central Minnesota

CITY           SKY/WX    TMP DP  RH WIND       PRES   REMARKS
ST CLOUD       CLOUDY    72  72 100 SE7       29.76F
SAUK CENTRE    CLOUDY    73  72  97 S3        29.77R
PAYNESVILLE    PTCLDY    74  74 100 SE7       29.77S
AITKIN         CLOUDY    73  66  78 SE5       29.75F
PINE RIVER     TSTM      72  72 100 W8        29.85R
BRAINERD       CLOUDY    72  69  90 SE12      29.74F
STAPLES        CLOUDY    72  70  94 NW7       29.80R THUNDER
LONG PRAIRIE   CLOUDY    72  72 100 SE10      29.76R
LITTLE FALLS   CLOUDY    72  68  88 SE6       29.77S
LITCHFIELD     CLEAR     75  75 100 SE7       29.77S
BUFFALO        CLOUDY    73  70  91 CALM      29.78S
MAPLE LAKE     CLOUDY    74  73  95 SE3       29.77F
HUTCHINSON     CLEAR     75  74  98 SE6       29.77F
$$
MNZ037-044-045-052-053-240600-
   East Central Minnesota

CITY           SKY/WX    TMP DP  RH WIND       PRES   REMARKS
PRINCETON      CLOUDY    72  70  94 E8        29.77F
MORA           CLOUDY    70  68  94 SE5       29.79F
CAMBRIDGE      CLOUDY    73  66  78 SE6       29.76F
RUSH CITY      CLOUDY    71  68  92 SE7       29.78F
MOOSE LAKE     CLOUDY    64  63  94 CALM      29.78F FOG
HINCKLEY       CLOUDY    72  70  94 SE6       29.79F
CLOQUET        CLOUDY    63  59  88 E3        29.81F
MCGREGOR       CLOUDY    68  64  88 SE7       29.78F
$$
MNZ071>073-080-081-089-090-097-098-240600-
   Southwest Minnesota

CITY           SKY/WX    TMP DP  RH WIND       PRES   REMARKS
MONTEVIDEO     CLOUDY    81  79  94 W7        29.76R
GRANITE FALLS  MOCLDY    81  79  94 S8        29.75S
CANBY          PTCLDY    81  74  79 W16G25    29.80R
REDWOOD FALLS  CLEAR     78  76  93 S7        29.74F
OLIVIA         CLEAR     77  73  88 SE6       29.74S
PIPESTONE      PTCLDY    81  77  89 W8        29.83R
WINDOM         CLEAR     81  75  83 S7        29.79R
WORTHINGTON    CLEAR     79  76  90 SW9       29.81R
JACKSON        CLEAR     79  73  83 S5        29.80S
TRACY          CLEAR     81  78  91 SW12      29.77S
SLAYTON        PTCLDY    78  75  91 SW7       29.81R
$$
MNZ065>067-074>077-082>085-091>093-240600-
   South Central Minnesota

CITY           SKY/WX    TMP DP  RH WIND       PRES   REMARKS
MANKATO        CLEAR     73  70  88 SE10      29.78S
NEW ULM        CLEAR     75  75 100 SE6       29.76F
ST JAMES       CLEAR     72  72 100 SE5       29.78S FOG
FAIRMONT       CLEAR     75  73  94 S7        29.77F
GLENCOE        CLEAR     75  74  98 SE5       29.76F
FARIBAULT      CLOUDY    75  72  88 SE7       29.80S
OWATONNA       MOCLDY    75  72  88 SE10      29.81S
WASECA         CLOUDY    73  72  94 SE8       29.81S
ALBERT LEA     CLOUDY    75  73  94 S7        29.82R
$$
MNZ078>079-086>088-094>096-240600-
   Southeast Minnesota

CITY           SKY/WX    TMP DP  RH WIND       PRES   REMARKS
ROCHESTER      CLOUDY    72  70  93 S9        29.84S
RED WING       CLOUDY    75  70  83 SE9       29.80R
STANTON        CLOUDY    75  70  83 S6        29.79R
DODGE CENTER   CLOUDY    73  70  88 S8        29.83S
WINONA         CLOUDY    73  70  88 CALM      29.83R
AUSTIN         CLOUDY    73  70  88 S7        29.83R
PRESTON        PTCLDY    69  67  93 S7        29.86R
$$
ABBREVIATIONS USED IN REMARKS
   TC - TEMPERATURES IN CELSIUS
  WCI - WIND CHILL INDEX
   HX - HEAT INDEX
  VSB - VISIBILITY
$$




USA.gov is the U.S. government's official web portal to all federal, state and local government web resources and services.